Time,TemperatureF,DewpointF,PressureIn,WindDirection,WindDirectionDegrees,WindSpeedMPH,WindSpeedGustMPH,Humidity,HourlyPrecipIn,Conditions,Clouds,dailyrainin,SolarRadiationWatts/m^2,SoftwareType,DateUTC
2013-06-17 00:00:00,69.5,63.1,29.89,South,169,0.0,0.0,80,0.00,,,0.00,0,Wunderground v.1.15,2013-06-17 04:00:00,
2013-06-17 00:10:00,69.2,63.1,29.89,South,169,0.0,0.0,81,0.00,,,0.00,0,Wunderground v.1.15,2013-06-17 04:10:00,
2013-06-17 00:20:00,68.9,63.2,29.89,South,169,0.0,0.0,82,0.00,,,0.00,0,Wunderground v.1.15,2013-06-17 04:20:00,
2013-06-17 00:30:00,69.1,63.4,29.89,South,169,0.0,0.0,82,0.00,,,0.00,0,Wunderground v.1.15,2013-06-17 04:30:00,
2013-06-17 00:40:00,68.6,62.9,29.89,South,169,0.0,0.0,82,0.00,,,0.00,0,Wunderground v.1.15,2013-06-17 04:40:00,
2013-06-17 00:50:00,67.8,62.8,29.89,South,169,0.0,0.0,84,0.00,,,0.00,0,Wunderground v.1.15,2013-06-17 04:50:00,
2013-06-17 01:00:00,67.9,63.2,29.89,South,169,0.0,0.0,85,0.00,,,0.00,0,Wunderground v.1.15,2013-06-17 05:00:00,
2013-06-17 01:10:00,68.2,63.2,29.90,South,169,0.0,0.0,84,0.00,,,0.00,0,Wunderground v.1.15,2013-06-17 05:10:00,
2013-06-17 01:20:00,68.9,63.5,29.89,South,169,0.0,0.0,83,0.00,,,0.00,0,Wunderground v.1.15,2013-06-17 05:20:00,
2013-06-17 01:30:00,68.5,63.5,29.90,South,169,0.0,0.0,84,0.00,,,0.00,0,Wunderground v.1.15,2013-06-17 05:30:00,
2013-06-17 01:40:00,68.5,63.1,29.89,South,169,0.0,0.0,83,0.00,,,0.00,0,Wunderground v.1.15,2013-06-17 05:40:00,
2013-06-17 01:50:00,69.0,63.3,29.89,SE,136,0.0,0.0,82,0.00,,,0.00,0,Wunderground v.1.15,2013-06-17 05:50:00,
2013-06-17 02:00:00,69.0,63.3,29.89,SE,138,0.0,0.0,82,0.00,,,0.00,0,Wunderground v.1.15,2013-06-17 06:00:00,
2013-06-17 02:10:00,69.0,63.3,29.89,SE,138,0.0,0.0,82,0.00,,,0.00,0,Wunderground v.1.15,2013-06-17 06:10:00,
2013-06-17 02:20:00,69.4,63.3,29.89,SE,138,0.0,0.0,81,0.00,,,0.00,0,Wunderground v.1.15,2013-06-17 06:20:00,
2013-06-17 02:30:00,69.2,63.1,29.89,SE,140,0.0,0.0,81,0.00,,,0.00,0,Wunderground v.1.15,2013-06-17 06:30:00,
2013-06-17 02:40:00,69.0,62.9,29.89,SE,140,0.0,0.0,81,0.00,,,0.00,0,Wunderground v.1.15,2013-06-17 06:40:00,
2013-06-17 02:50:00,68.2,62.8,29.89,SE,140,0.0,0.0,83,0.00,,,0.00,0,Wunderground v.1.15,2013-06-17 06:50:00,
2013-06-17 03:00:00,67.4,62.4,29.89,SE,140,0.0,0.0,84,0.00,,,0.00,0,Wunderground v.1.15,2013-06-17 07:00:00,
2013-06-17 03:10:00,67.0,62.7,29.90,SE,140,0.0,0.0,86,0.00,,,0.00,0,Wunderground v.1.15,2013-06-17 07:10:00,
2013-06-17 03:20:00,67.4,62.7,29.90,SE,140,0.0,0.0,85,0.00,,,0.00,0,Wunderground v.1.15,2013-06-17 07:20:00,
2013-06-17 03:30:00,67.2,62.9,29.90,SE,140,0.0,0.0,86,0.00,,,0.00,0,Wunderground v.1.15,2013-06-17 07:30:00,
2013-06-17 03:40:00,67.2,62.9,29.90,SE,140,0.0,0.0,86,0.00,,,0.00,0,Wunderground v.1.15,2013-06-17 07:40:00,
2013-06-17 03:50:00,67.4,62.7,29.90,SE,140,0.0,0.0,85,0.00,,,0.00,0,Wunderground v.1.15,2013-06-17 07:50:00,
2013-06-17 04:00:00,67.9,62.9,29.90,SE,140,0.0,0.0,84,0.00,,,0.00,0,Wunderground v.1.15,2013-06-17 08:00:00,
2013-06-17 04:10:00,68.0,62.6,29.90,SE,140,0.0,0.0,83,0.00,,,0.00,0,Wunderground v.1.15,2013-06-17 08:10:00,
2013-06-17 04:20:00,68.2,62.8,29.89,SE,140,0.0,0.0,83,0.00,,,0.00,0,Wunderground v.1.15,2013-06-17 08:20:00,
2013-06-17 04:30:00,67.6,62.6,29.90,SE,140,0.0,0.0,84,0.00,,,0.00,0,Wunderground v.1.15,2013-06-17 08:30:00,
2013-06-17 04:40:00,66.5,62.2,29.90,SE,140,0.0,0.0,86,0.00,,,0.00,0,Wunderground v.1.15,2013-06-17 08:40:00,
2013-06-17 04:50:00,66.2,62.2,29.90,SE,140,0.0,0.0,87,0.00,,,0.00,0,Wunderground v.1.15,2013-06-17 08:50:00,
2013-06-17 05:00:00,65.8,62.1,29.91,SE,140,0.0,0.0,88,0.00,,,0.00,0,Wunderground v.1.15,2013-06-17 09:00:00,
2013-06-17 05:10:00,65.8,61.8,29.91,SE,140,0.0,0.0,87,0.00,,,0.00,0,Wunderground v.1.15,2013-06-17 09:10:00,
2013-06-17 05:20:00,65.3,61.7,29.91,SE,140,0.0,0.0,88,0.00,,,0.00,0,Wunderground v.1.15,2013-06-17 09:20:00,
2013-06-17 05:30:00,64.7,61.4,29.90,ESE,108,0.0,0.0,89,0.00,,,0.00,0,Wunderground v.1.15,2013-06-17 09:30:00,
2013-06-17 05:40:00,64.7,61.7,29.91,ESE,108,0.0,0.0,90,0.00,,,0.00,0,Wunderground v.1.15,2013-06-17 09:40:00,
2013-06-17 05:50:00,64.8,62.1,29.91,ESE,108,0.0,0.0,91,0.00,,,0.00,5,Wunderground v.1.15,2013-06-17 09:50:00,
2013-06-17 06:00:00,65.6,62.6,29.91,ESE,108,0.0,0.0,90,0.00,,,0.00,16,Wunderground v.1.15,2013-06-17 10:00:00,
2013-06-17 06:10:00,65.4,62.4,29.91,ESE,108,0.0,0.0,90,0.00,,,0.00,25,Wunderground v.1.15,2013-06-17 10:10:00,
2013-06-17 06:20:00,66.0,63.3,29.91,ESE,108,0.0,0.0,91,0.00,,,0.00,30,Wunderground v.1.15,2013-06-17 10:20:00,
2013-06-17 06:30:00,66.6,63.6,29.91,ESE,108,0.0,0.0,90,0.00,,,0.00,40,Wunderground v.1.15,2013-06-17 10:30:00,
2013-06-17 06:40:00,66.6,63.6,29.91,ESE,108,0.0,0.0,90,0.00,,,0.00,53,Wunderground v.1.15,2013-06-17 10:40:00,
2013-06-17 06:50:00,67.0,64.3,29.91,ESE,108,0.0,0.0,91,0.00,,,0.00,74,Wunderground v.1.15,2013-06-17 10:50:00,
2013-06-17 07:00:00,68.1,65.4,29.91,ESE,108,0.0,0.0,91,0.00,,,0.00,98,Wunderground v.1.15,2013-06-17 11:00:00,
2013-06-17 07:10:00,69.1,66.0,29.91,ESE,109,0.0,0.0,90,0.00,,,0.00,111,Wunderground v.1.15,2013-06-17 11:10:00,
2013-06-17 07:20:00,69.7,66.3,29.92,ESE,109,0.0,0.0,89,0.00,,,0.00,141,Wunderground v.1.15,2013-06-17 11:20:00,
2013-06-17 07:30:00,70.4,66.7,29.91,ESE,109,0.0,0.0,88,0.00,,,0.00,139,Wunderground v.1.15,2013-06-17 11:30:00,
2013-06-17 07:40:00,70.8,66.7,29.92,ESE,109,0.0,0.0,87,0.00,,,0.00,156,Wunderground v.1.15,2013-06-17 11:40:00,
2013-06-17 07:50:00,71.0,66.9,29.92,ESE,109,0.0,0.0,87,0.00,,,0.00,153,Wunderground v.1.15,2013-06-17 11:50:00,
2013-06-17 08:00:00,71.2,67.1,29.92,WSW,253,0.0,0.0,87,0.00,,,0.00,148,Wunderground v.1.15,2013-06-17 12:00:00,
2013-06-17 08:10:00,71.7,67.6,29.92,WSW,253,0.0,0.0,87,0.00,,,0.00,178,Wunderground v.1.15,2013-06-17 12:10:00,
2013-06-17 08:20:00,72.2,68.1,29.92,WSW,253,0.0,0.0,87,0.00,,,0.00,202,Wunderground v.1.15,2013-06-17 12:20:00,
2013-06-17 08:30:00,72.4,67.6,29.93,WSW,253,0.0,0.0,85,0.00,,,0.00,204,Wunderground v.1.15,2013-06-17 12:30:00,
2013-06-17 08:40:00,72.8,68.0,29.93,WSW,253,0.0,0.0,85,0.00,,,0.00,178,Wunderground v.1.15,2013-06-17 12:40:00,
2013-06-17 08:50:00,73.9,69.1,29.92,WSW,242,0.0,0.0,85,0.00,,,0.00,390,Wunderground v.1.15,2013-06-17 12:50:00,
2013-06-17 09:00:00,74.8,68.9,29.92,SW,215,0.0,0.0,82,0.00,,,0.00,311,Wunderground v.1.15,2013-06-17 13:00:00,
2013-06-17 09:10:00,75.8,69.2,29.92,West,269,0.0,0.0,80,0.00,,,0.00,508,Wunderground v.1.15,2013-06-17 13:10:00,
2013-06-17 09:20:00,76.6,70.3,29.92,WSW,252,0.0,0.0,81,0.00,,,0.00,547,Wunderground v.1.15,2013-06-17 13:20:00,
2013-06-17 09:30:00,77.6,69.8,29.93,West,263,2.0,2.0,77,0.00,,,0.00,671,Wunderground v.1.15,2013-06-17 13:30:00,
2013-06-17 09:40:00,77.5,68.6,29.92,WSW,247,1.0,1.0,74,0.00,,,0.00,383,Wunderground v.1.15,2013-06-17 13:40:00,
2013-06-17 09:50:00,76.8,69.0,29.92,WSW,257,0.0,2.0,77,0.00,,,0.00,287,Wunderground v.1.15,2013-06-17 13:50:00,
2013-06-17 10:00:00,77.8,70.4,29.91,WSW,244,0.0,0.0,78,0.00,,,0.00,705,Wunderground v.1.15,2013-06-17 14:00:00,
2013-06-17 10:10:00,78.4,69.4,29.91,WSW,251,2.0,2.0,74,0.00,,,0.00,740,Wunderground v.1.15,2013-06-17 14:10:00,
2013-06-17 10:20:00,78.9,69.5,29.91,SSW,205,1.0,1.0,73,0.00,,,0.00,573,Wunderground v.1.15,2013-06-17 14:20:00,
2013-06-17 10:30:00,79.5,69.3,29.91,WSW,241,1.0,1.0,71,0.00,,,0.00,318,Wunderground v.1.15,2013-06-17 14:30:00,
2013-06-17 10:40:00,79.0,69.2,29.91,West,267,1.0,6.0,72,0.00,,,0.00,197,Wunderground v.1.15,2013-06-17 14:40:00,
2013-06-17 10:50:00,78.7,69.3,29.90,WSW,244,2.0,2.0,73,0.00,,,0.00,886,Wunderground v.1.15,2013-06-17 14:50:00,
2013-06-17 11:00:00,80.2,69.1,29.91,West,270,2.0,3.0,69,0.00,,,0.00,218,Wunderground v.1.15,2013-06-17 15:00:00,
2013-06-17 11:10:00,79.8,69.1,29.90,WNW,284,1.0,1.0,70,0.00,,,0.00,882,Wunderground v.1.15,2013-06-17 15:10:00,
2013-06-17 11:20:00,81.1,68.7,29.90,West,266,1.0,1.0,66,0.00,,,0.00,404,Wunderground v.1.15,2013-06-17 15:20:00,
2013-06-17 11:30:00,79.6,68.5,29.91,West,263,1.0,2.0,69,0.00,,,0.00,287,Wunderground v.1.15,2013-06-17 15:30:00,
2013-06-17 11:40:00,80.2,69.5,29.91,SW,234,1.0,1.0,70,0.00,,,0.00,1090,Wunderground v.1.15,2013-06-17 15:40:00,
2013-06-17 11:50:00,80.6,69.9,29.90,West,278,1.0,1.0,70,0.00,,,0.00,998,Wunderground v.1.15,2013-06-17 15:50:00,
2013-06-17 12:00:00,81.3,69.3,29.90,SW,219,1.0,1.0,67,0.00,,,0.00,1041,Wunderground v.1.15,2013-06-17 16:00:00,
2013-06-17 12:10:00,83.1,71.4,29.91,WSW,258,1.0,5.0,68,0.00,,,0.00,1000,Wunderground v.1.15,2013-06-17 16:10:00,
2013-06-17 12:20:00,82.8,68.9,29.90,WSW,255,2.0,2.0,63,0.00,,,0.00,339,Wunderground v.1.15,2013-06-17 16:20:00,
2013-06-17 12:30:00,80.9,68.5,29.90,WSW,258,1.0,1.0,66,0.00,,,0.00,204,Wunderground v.1.15,2013-06-17 16:30:00,
2013-06-17 12:40:00,81.9,69.9,29.90,WSW,247,0.0,1.0,67,0.00,,,0.00,568,Wunderground v.1.15,2013-06-17 16:40:00,
2013-06-17 12:50:00,82.3,70.7,29.90,West,259,1.0,2.0,68,0.00,,,0.00,533,Wunderground v.1.15,2013-06-17 16:50:00,
2013-06-17 13:00:00,82.5,69.1,29.90,West,269,1.0,1.0,64,0.00,,,0.00,178,Wunderground v.1.15,2013-06-17 17:00:00,
2013-06-17 13:10:00,81.3,69.7,29.90,West,277,1.0,1.0,68,0.00,,,0.00,287,Wunderground v.1.15,2013-06-17 17:10:00,
2013-06-17 13:20:00,83.8,70.8,29.89,NNW,336,0.0,0.0,65,0.00,,,0.00,1013,Wunderground v.1.15,2013-06-17 17:20:00,
2013-06-17 13:30:00,84.4,70.9,29.89,West,263,1.0,3.0,64,0.00,,,0.00,1137,Wunderground v.1.15,2013-06-17 17:30:00,
2013-06-17 13:40:00,83.7,69.3,29.89,West,267,1.0,4.0,62,0.00,,,0.00,258,Wunderground v.1.15,2013-06-17 17:40:00,
2013-06-17 13:50:00,82.9,68.5,29.89,NNW,328,1.0,1.0,62,0.00,,,0.00,271,Wunderground v.1.15,2013-06-17 17:50:00,
2013-06-17 14:00:00,84.2,70.7,29.89,West,275,1.0,2.0,64,0.00,,,0.00,1072,Wunderground v.1.15,2013-06-17 18:00:00,
2013-06-17 14:10:00,84.3,69.9,29.89,West,275,0.0,0.0,62,0.00,,,0.00,946,Wunderground v.1.15,2013-06-17 18:10:00,
2013-06-17 14:20:00,84.6,71.1,29.89,WNW,282,1.0,1.0,64,0.00,,,0.00,1002,Wunderground v.1.15,2013-06-17 18:20:00,
2013-06-17 14:30:00,84.6,71.1,29.89,NW,321,0.0,0.0,64,0.00,,,0.00,1021,Wunderground v.1.15,2013-06-17 18:30:00,
2013-06-17 14:40:00,84.3,69.9,29.88,West,261,1.0,1.0,62,0.00,,,0.00,937,Wunderground v.1.15,2013-06-17 18:40:00,
2013-06-17 14:50:00,84.8,70.3,29.87,NNW,345,1.0,1.0,62,0.00,,,0.00,793,Wunderground v.1.15,2013-06-17 18:50:00,
2013-06-17 15:00:00,85.6,69.6,29.87,NNW,329,1.0,1.0,59,0.00,,,0.00,773,Wunderground v.1.15,2013-06-17 19:00:00,
2013-06-17 15:10:00,85.1,69.7,29.87,North,5,1.0,1.0,60,0.00,,,0.00,594,Wunderground v.1.15,2013-06-17 19:10:00,
2013-06-17 15:20:00,85.2,69.3,29.87,NW,325,0.0,1.0,59,0.00,,,0.00,817,Wunderground v.1.15,2013-06-17 19:20:00,
2013-06-17 15:30:00,85.4,70.9,29.87,NW,321,1.0,1.0,62,0.00,,,0.00,638,Wunderground v.1.15,2013-06-17 19:30:00,
2013-06-17 15:40:00,86.0,69.5,29.86,West,265,1.0,5.0,58,0.00,,,0.00,715,Wunderground v.1.15,2013-06-17 19:40:00,
2013-06-17 15:50:00,85.7,68.7,29.86,WSW,256,1.0,1.0,57,0.00,,,0.00,705,Wunderground v.1.15,2013-06-17 19:50:00,
2013-06-17 16:00:00,86.3,69.8,29.85,WSW,242,0.0,0.0,58,0.00,,,0.00,729,Wunderground v.1.15,2013-06-17 20:00:00,
2013-06-17 16:10:00,84.8,70.3,29.85,WSW,258,1.0,1.0,62,0.00,,,0.00,670,Wunderground v.1.15,2013-06-17 20:10:00,
2013-06-17 16:20:00,84.0,69.1,29.85,West,269,0.0,0.0,61,0.00,,,0.00,246,Wunderground v.1.15,2013-06-17 20:20:00,
2013-06-17 16:30:00,84.9,69.5,29.84,WSW,247,0.0,0.0,60,0.00,,,0.00,615,Wunderground v.1.15,2013-06-17 20:30:00,
2013-06-17 16:40:00,85.5,68.0,29.85,WSW,252,1.0,1.0,56,0.00,,,0.00,520,Wunderground v.1.15,2013-06-17 20:40:00,
2013-06-17 16:50:00,85.5,69.0,29.84,West,260,1.0,1.0,58,0.00,,,0.00,561,Wunderground v.1.15,2013-06-17 20:50:00,
2013-06-17 17:00:00,85.6,69.1,29.84,WSW,258,0.0,1.0,58,0.00,,,0.00,508,Wunderground v.1.15,2013-06-17 21:00:00,
2013-06-17 17:10:00,85.6,68.6,29.84,WSW,252,0.0,0.0,57,0.00,,,0.00,320,Wunderground v.1.15,2013-06-17 21:10:00,
2013-06-17 17:20:00,85.1,68.2,29.84,WSW,253,0.0,0.0,57,0.00,,,0.00,427,Wunderground v.1.15,2013-06-17 21:20:00,
2013-06-17 17:30:00,85.9,67.9,29.84,West,277,0.0,0.0,55,0.00,,,0.00,345,Wunderground v.1.15,2013-06-17 21:30:00,
2013-06-17 17:40:00,85.5,67.0,29.85,NW,313,0.0,1.0,54,0.00,,,0.00,214,Wunderground v.1.15,2013-06-17 21:40:00,
2013-06-17 17:50:00,85.2,66.7,29.84,West,277,0.0,0.0,54,0.00,,,0.00,260,Wunderground v.1.15,2013-06-17 21:50:00,
2013-06-17 18:00:00,85.0,67.5,29.85,West,278,0.0,0.0,56,0.00,,,0.00,169,Wunderground v.1.15,2013-06-17 22:00:00,
2013-06-17 18:10:00,84.9,68.5,29.85,NW,312,0.0,0.0,58,0.00,,,0.00,230,Wunderground v.1.15,2013-06-17 22:10:00,
2013-06-17 18:20:00,84.9,68.0,29.85,NW,309,0.0,0.0,57,0.00,,,0.00,343,Wunderground v.1.15,2013-06-17 22:20:00,
2013-06-17 18:30:00,85.0,67.5,29.85,WNW,283,0.0,0.0,56,0.00,,,0.00,255,Wunderground v.1.15,2013-06-17 22:30:00,
2013-06-17 18:40:00,84.8,67.9,29.84,West,281,0.0,0.0,57,0.00,,,0.00,91,Wunderground v.1.15,2013-06-17 22:40:00,
2013-06-17 18:50:00,83.8,68.9,29.84,West,281,0.0,0.0,61,0.00,,,0.00,114,Wunderground v.1.15,2013-06-17 22:50:00,
2013-06-17 19:00:00,83.8,67.9,29.84,West,281,0.0,0.0,59,0.00,,,0.00,72,Wunderground v.1.15,2013-06-17 23:00:00,
2013-06-17 19:10:00,83.9,67.0,29.85,West,281,0.0,0.0,57,0.00,,,0.00,56,Wunderground v.1.15,2013-06-17 23:10:00,
2013-06-17 19:20:00,83.3,67.5,29.85,WNW,298,0.0,0.0,59,0.00,,,0.00,47,Wunderground v.1.15,2013-06-17 23:20:00,
2013-06-17 19:30:00,83.1,67.8,29.84,WNW,298,0.0,0.0,60,0.00,,,0.00,56,Wunderground v.1.15,2013-06-17 23:30:00,
2013-06-17 19:40:00,82.8,67.5,29.84,WNW,298,0.0,0.0,60,0.00,,,0.00,39,Wunderground v.1.15,2013-06-17 23:40:00,
2013-06-17 19:50:00,82.3,68.0,29.85,WNW,298,0.0,0.0,62,0.00,,,0.00,35,Wunderground v.1.15,2013-06-17 23:50:00,
2013-06-17 20:00:00,80.3,68.3,29.84,WNW,298,0.0,0.0,67,0.00,,,0.00,23,Wunderground v.1.15,2013-06-18 00:00:00,
2013-06-17 20:10:00,78.9,69.5,29.85,WNW,298,0.0,0.0,73,0.00,,,0.00,16,Wunderground v.1.15,2013-06-18 00:10:00,
2013-06-17 20:20:00,78.0,68.6,29.85,WNW,298,0.0,0.0,73,0.00,,,0.00,11,Wunderground v.1.15,2013-06-18 00:20:00,
2013-06-17 20:30:00,78.0,69.0,29.85,WNW,298,0.0,0.0,74,0.00,,,0.00,5,Wunderground v.1.15,2013-06-18 00:30:00,
2013-06-17 20:40:00,75.4,69.2,29.86,NNE,25,0.0,0.0,81,0.00,,,0.00,0,Wunderground v.1.15,2013-06-18 00:40:00,
2013-06-17 20:50:00,73.8,69.3,29.86,NNE,25,0.0,0.0,86,0.00,,,0.00,0,Wunderground v.1.15,2013-06-18 00:50:00,
2013-06-17 21:00:00,72.7,68.6,29.86,NNE,25,0.0,0.0,87,0.00,,,0.00,0,Wunderground v.1.15,2013-06-18 01:00:00,
2013-06-17 21:10:00,73.0,68.2,29.86,NNE,25,0.0,0.0,85,0.00,,,0.00,0,Wunderground v.1.15,2013-06-18 01:10:00,
2013-06-17 21:20:00,72.5,67.7,29.87,NNE,25,0.0,0.0,85,0.00,,,0.00,0,Wunderground v.1.15,2013-06-18 01:20:00,
2013-06-17 21:30:00,71.3,66.9,29.87,NNE,25,0.0,0.0,86,0.00,,,0.00,0,Wunderground v.1.15,2013-06-18 01:30:00,
2013-06-17 21:40:00,70.6,67.2,29.87,NNE,25,0.0,0.0,89,0.00,,,0.00,0,Wunderground v.1.15,2013-06-18 01:40:00,
2013-06-17 21:50:00,70.4,67.0,29.87,NNE,25,0.0,0.0,89,0.00,,,0.00,0,Wunderground v.1.15,2013-06-18 01:50:00,
2013-06-17 22:00:00,69.9,66.8,29.87,NNE,25,0.0,0.0,90,0.00,,,0.00,0,Wunderground v.1.15,2013-06-18 02:00:00,
2013-06-17 22:10:00,69.8,67.1,29.88,NNE,25,0.0,0.0,91,0.00,,,0.00,0,Wunderground v.1.15,2013-06-18 02:10:00,
2013-06-17 22:20:00,69.8,67.1,29.88,NNE,25,0.0,0.0,91,0.00,,,0.00,0,Wunderground v.1.15,2013-06-18 02:20:00,
2013-06-17 22:30:00,70.8,68.0,29.88,NNE,19,0.0,0.0,91,0.00,,,0.00,0,Wunderground v.1.15,2013-06-18 02:30:00,
2013-06-17 22:40:00,71.0,67.6,29.89,NE,46,0.0,0.0,89,0.00,,,0.00,0,Wunderground v.1.15,2013-06-18 02:40:00,
2013-06-17 22:50:00,70.4,67.0,29.89,NE,46,0.0,0.0,89,0.00,,,0.00,0,Wunderground v.1.15,2013-06-18 02:50:00,
2013-06-17 23:00:00,69.9,66.8,29.88,NE,46,0.0,0.0,90,0.00,,,0.00,0,Wunderground v.1.15,2013-06-18 03:00:00,
2013-06-17 23:10:00,69.7,67.0,29.89,NE,46,0.0,0.0,91,0.00,,,0.00,0,Wunderground v.1.15,2013-06-18 03:10:00,
2013-06-17 23:20:00,69.4,66.7,29.89,NE,46,0.0,0.0,91,0.00,,,0.00,0,Wunderground v.1.15,2013-06-18 03:20:00,
2013-06-17 23:30:00,69.7,67.0,29.89,NE,46,0.0,0.0,91,0.00,,,0.00,0,Wunderground v.1.15,2013-06-18 03:30:00,
2013-06-17 23:40:00,70.2,67.1,29.89,NE,46,0.0,0.0,90,0.00,,,0.00,0,Wunderground v.1.15,2013-06-18 03:40:00,
2013-06-17 23:50:00,70.6,67.2,29.88,NE,46,0.0,0.0,89,0.00,,,0.00,0,Wunderground v.1.15,2013-06-18 03:50:00,